Weather History for Fairbanks, AK

Change the Weather History Date:

Friday, January 4, 2013

  Actual Average Record
Temperature  
Mean Temperature 3 °F -7 °F  
Max Temperature 12 °F 2 °F 40 °F (1977)
Min Temperature -7 °F -16 °F -56 °F (1975)
Degree Days  
Heating Degree Days 62 72  
Month to date heating degree days 212 288  
Since 1 July heating degree days 7236 6560  
Cooling Degree Days 0 0  
Month to date cooling degree days 0 0  
Year to date cooling degree days 0 0  
Moisture  
Dew Point -2 °F    
Average Humidity 83    
Maximum Humidity 91    
Minimum Humidity 74    
Precipitation  
Precipitation 0.00 in 0.03 in 0.35 in (1907)
Month to date precipitation 0.00 0.09  
Year to date precipitation 0.00 0.09  
Snow  
Snow 0.00 in 0.40 in 6.00 in (1938)
Month to date snowfall 0.0 1.6  
Since 1 July snowfall 29.9 39.5  
Snow Depth 14.00 in    
Sea Level Pressure  
Sea Level Pressure 29.79 in    
Wind  
Wind Speed 0 mph (NNE)    
Max Wind Speed 4 mph    
Max Gust Speed -    
Visibility 10 miles    
Events      
T = Trace of Precipitation, MM = Missing Value Source: NWS Daily Summary

Daily Weather History Graph

Daily Weather History Graph

Search for Another Location

Airport:

Trip Planner

Search our weather history database for the weather conditions in past years. The results will help you decide how hot, cold, wet, or windy it might be!

Date:

Astronomy

Jan. 04, 2013 Rise Set
Actual Time 10:49 AM AKST 3:04 PM AKST
Civil Twilight 9:30 AM AKST 4:23 PM AKST
Nautical Twilight 8:20 AM AKST 5:33 PM AKST
Astronomical Twilight 7:19 AM AKST 6:34 PM AKST
Moon 12:55 AM AKST (1/4) 11:20 AM AKST (1/4)
Length of Visible Light 6h 53m
Length of Day
4h 15m
Waning Gibbous, 53% of the Moon is Illuminated
Jan 4
Waning Gibbous
Jan 4
Last Quarter
Jan 11
New
Jan 18
First Quarter
Jan 26
Full

Hourly Weather History & Observations

Time (AKST) Temp. Windchill Dew Point Humidity Pressure Visibility Wind Dir Wind Speed Gust Speed Precip Events Conditions
12:53 AM 10.9 °F - 7.0 °F 84% 29.67 in 10.0 mi Calm Calm - N/A   Mostly Cloudy
1:53 AM 10.9 °F - 8.1 °F 88% 29.67 in 10.0 mi Calm Calm - N/A   Mostly Cloudy
3:53 AM 6.1 °F - 1.9 °F 83% 29.68 in 10.0 mi Calm Calm - N/A   Mostly Cloudy
4:53 AM -0.9 °F -8.9 °F -2.9 °F 91% 29.70 in 10.0 mi NNE 3.5 mph - N/A   Mostly Cloudy
5:53 AM -0.9 °F - -4.0 °F 87% 29.70 in 10.0 mi Calm Calm - N/A   Mostly Cloudy
6:53 AM -2.0 °F - -4.0 °F 91% 29.71 in 10.0 mi Calm Calm - N/A   Scattered Clouds
7:53 AM -4.0 °F - -8.0 °F 83% 29.73 in 10.0 mi Calm Calm - N/A   Mostly Cloudy
8:53 AM -2.9 °F - -7.1 °F 82% 29.74 in 10.0 mi Calm Calm - N/A   Mostly Cloudy
9:53 AM -0.0 °F - -4.0 °F 83% 29.75 in 10.0 mi Calm Calm - N/A   Mostly Cloudy
10:53 AM 1.0 °F - -2.9 °F 83% 29.78 in 10.0 mi Calm Calm - N/A   Mostly Cloudy
11:53 AM 1.9 °F - -2.9 °F 80% 29.80 in 10.0 mi Calm Calm - N/A   Mostly Cloudy
12:20 PM 3.2 °F - -0.4 °F 85% 29.77 in 10.0 mi Calm Calm - N/A   Mostly Cloudy
12:53 PM 3.9 °F - 1.0 °F 88% 29.81 in 10.0 mi Calm Calm - N/A   Mostly Cloudy
1:53 PM 6.1 °F - 1.9 °F 83% 29.82 in 10.0 mi Calm Calm - N/A   Mostly Cloudy
2:53 PM 7.0 °F - 3.0 °F 84% 29.83 in 10.0 mi Calm Calm - N/A   Mostly Cloudy
3:53 PM 7.0 °F - 3.0 °F 84% 29.84 in 10.0 mi Calm Calm - N/A   Mostly Cloudy
4:53 PM 5.0 °F - 1.9 °F 87% 29.85 in 10.0 mi Calm Calm - N/A   Mostly Cloudy
5:53 PM 1.0 °F -6.7 °F -2.0 °F 87% 29.86 in 10.0 mi North 3.5 mph - N/A   Mostly Cloudy
6:53 PM 1.0 °F -6.7 °F -2.9 °F 83% 29.87 in 10.0 mi NE 3.5 mph - N/A   Scattered Clouds
7:53 PM -2.9 °F - -7.1 °F 82% 29.87 in 10.0 mi Calm Calm - N/A   Scattered Clouds
8:53 PM -2.9 °F - -7.1 °F 82% 29.86 in 10.0 mi Calm Calm - N/A   Scattered Clouds
9:53 PM -2.9 °F - -8.0 °F 79% 29.87 in 10.0 mi Calm Calm - N/A   Scattered Clouds
10:53 PM -2.9 °F -11.2 °F -7.1 °F 82% 29.88 in 10.0 mi NNE 3.5 mph - N/A   Scattered Clouds
11:53 PM -4.0 °F - -9.0 °F 79% 29.83 in 10.0 mi Calm Calm - N/A   Scattered Clouds